Temperature
23 22 22 22 22 22 21 20 20 20 19 19 19 19 18 18 17 18 18 18 17 17 17 17 17 17 17 17 17 17 17 17 17 17 17 17 17 17 17 17 17 18 18
22 22 21 21 22 21 21 22 21 20 20 20 20 19 18 18 18 17 17 16 16 16 16 16 16 16 17 17 17 16 16 16 16 16 16 16 16 17 18 18 18 18 18
22 22 22 22 22 22 22 21 21 21 20 20 19 18 18 17 17 17 16 16 16 16 16 16 16 16 17 16 16 16 16 16 15 16 16 16 16 17 17 17 17 17 17
22 23 23 23 23 22 22 21 21 20 20 19 19 18 18 17 17 16 16 15 15 15 15 15 16 16 16 16 16 16 15 15 15 16 16 16 16 16 16 16 16 16 16
23 23 24 23 23 22 22 21 21 20 19 19 19 18 18 17 16 16 15 15 15 15 15 15 15 14 14 15 15 14 14 15 15 15 16 16 16 15 14 14 15 16 16
23 23 23 23 23 22 21 21 21 20 20 19 19 18 17 16 16 16 15 15 15 15 15 14 14 13 13 14 14 13 14 15 15 15 15 15 15 15 14 14 14 15 15
23 23 23 23 23 22 22 21 21 20 20 19 19 18 17 16 16 15 14 15 14 14 13 13 13 13 13 13 13 14 15 15 15 14 14 15 15 14 14 14 13 14 14
22 22 23 22 22 22 22 21 21 21 20 20 19 18 16 16 15 14 14 14 14 13 13 13 13 13 13 13 13 14 14 14 14 14 14 14 14 14 13 13 13 13 13
19 20 21 21 21 22 22 22 21 21 20 20 19 18 16 15 15 14 14 14 13 13 13 13 12 12 13 13 14 14 14 14 14 14 14 13 13 13 13 13 14 13 13
18 19 20 21 21 21 22 21 21 20 20 19 18 17 16 15 15 14 14 14 13 13 13 12 12 12 13 13 14 14 13 13 13 13 13 13 13 13 13 13 14 14 14
16 17 18 20 21 20 20 19 19 19 19 18 17 17 16 16 15 14 14 14 13 13 13 13 12 12 12 13 13 13 12 12 13 13 13 13 13 13 13 13 13 14 14
14 15 15 16 16 17 17 17 17 17 17 17 16 16 16 16 15 15 14 14 14 13 13 12 12 11 11 12 12 12 12 12 12 13 13 12 13 13 13 13 13 14 14
12 12 13 13 14 14 15 16 16 16 16 16 16 16 16 16 16 15 14 14 13 13 13 12 12 11 11 11 11 11 12 12 12 12 12 12 13 12 13 13 13 13 13
11 12 12 12 12 12 13 14 15 15 15 16 15 15 16 16 15 15 14 13 13 13 13 12 12 11 11 11 11 11 12 12 12 12 12 12 13 13 13 13 13 13 13
9 10 10 10 11 12 12 12 13 12 13 14 14 14 15 15 15 15 14 13 13 13 12 12 11 11 11 11 11 11 12 12 12 12 12 12 12 12 12 13 13 13 13
8 9 9 9 9 10 10 11 11 11 11 12 12 13 14 14 15 15 14 13 13 12 12 12 11 11 11 11 11 11 11 11 11 11 12 12 12 12 13 13 13 13 13
8 8 9 9 10 10 10 10 10 10 11 11 12 12 13 14 15 15 14 13 13 12 12 12 11 11 11 11 11 11 11 11 11 11 12 12 12 12 12 12 12 12 12
9 9 10 10 10 10 10 10 9 10 10 10 11 12 12 12 12 13 14 13 13 13 12 12 11 11 11 11 11 11 11 11 12 12 12 12 11 11 12 12 12 12 11
10 10 10 10 10 10 10 10 9 9 10 10 10 11 11 11 11 11 12 12 13 12 12 12 12 11 11 11 11 11 11 11 11 11 11 11 11 11 11 12 12 11 11
10 10 10 10 10 10 10 9 9 9 9 9 9 9 10 10 10 10 10 11 12 12 12 12 12 12 12 12 12 11 11 11 11 11 11 11 11 11 11 11 11 11 11
10 10 10 10 10 10 10 9 9 9 9 9 9 9 9 9 9 9 9 10 10 10 11 12 12 12 12 12 12 11 12 12 12 11 11 10 10 10 10 10 10 10 10
9 9 9 9 9 9 9 9 9 9 9 9 9 9 9 9 8 8 9 9 9 9 10 11 11 11 11 12 11 12 12 12 12 11 11 10 10 10 10 9 9 9 9
8 8 8 9 9 9 9 9 9 9 9 8 8 9 9 9 8 8 8 9 9 9 10 10 11 11 11 11 11 11 11 11 11 11 11 10 10 10 9 9 8 8 8
7 7 7 7 8 8 8 9 9 9 8 8 8 8 9 9 8 7 8 8 8 8 9 10 11 11 11 11 11 11 11 11 11 11 10 10 9 9 8 8 8 8 8
6 6 5 5 6 6 7 8 8 8 8 8 8 8 8 8 8 7 7 7 8 8 9 9 10 11 11 11 11 11 11 11 10 10 10 9 9 9 8 8 8 8 8
5 5 4 4 4 5 5 5 5 5 5 6 6 7 8 8 7 7 7 7 7 7 8 8 8 11 12 12 11 11 11 11 11 10 10 10 9 9 9 8 8 8 8
Wind_Speed
1 1 0 1 3 3 4 4 5 6 6 3 2 3 4 2 2 3 5 5 6 6 5 6 7 7 7 8 8 8 9 9 7 5 7 8 10 10 10 10 10 10 12
5 5 5 4 4 3 2 3 4 3 3 2 2 3 2 2 2 2 3 4 6 7 5 6 7 7 7 9 9 8 5 5 7 6 5 6 7 7 8 8 8 9 8
9 8 8 7 6 6 6 6 6 5 4 4 2 1 1 1 2 3 3 4 5 6 6 8 8 9 8 9 10 10 10 8 6 9 7 4 6 2 3 4 6 7 6
9 9 9 9 9 9 8 8 7 6 5 4 4 4 2 2 2 2 4 7 7 8 8 9 10 10 9 10 10 11 10 10 8 7 9 9 5 4 4 3 4 4 5
12 10 11 9 7 7 7 6 5 6 5 4 4 3 3 3 2 2 5 6 7 7 8 9 10 11 9 10 11 11 10 9 9 7 5 6 6 6 7 6 3 3 4
10 11 10 6 6 6 7 6 6 8 6 6 6 6 6 4 2 3 5 5 5 7 8 8 8 10 9 10 10 10 11 10 9 8 7 6 6 5 5 7 6 5 2
9 10 10 10 7 7 8 7 6 9 7 6 5 6 6 4 2 4 5 5 6 8 9 9 9 9 9 9 9 9 9 10 10 9 7 8 8 5 6 7 6 5 3
6 8 10 9 9 10 10 7 8 9 6 4 5 5 6 4 3 4 5 5 5 7 9 10 10 11 9 8 8 8 8 7 8 9 7 5 5 5 6 6 6 4 3
9 10 11 10 10 10 9 8 9 8 5 5 5 5 5 4 4 5 5 4 4 6 8 10 11 12 11 9 8 8 9 7 8 8 7 6 6 7 9 9 9 7 4
14 13 13 11 9 8 8 8 6 4 2 5 6 6 6 6 5 5 6 4 4 5 7 9 11 13 11 10 8 8 8 7 5 5 5 6 8 11 11 11 9 6 5
12 14 17 17 14 13 12 10 9 7 6 5 7 7 7 6 6 6 7 5 4 5 7 9 10 11 12 10 8 5 4 3 3 4 2 2 2 2 4 6 6 4 4
12 14 14 15 16 15 14 14 12 10 8 6 6 8 7 7 7 7 8 6 5 5 7 8 8 10 10 9 8 8 7 6 6 8 7 6 7 6 6 5 5 4 6
15 14 14 13 12 11 11 11 11 11 11 9 7 8 8 9 9 8 8 6 5 5 6 6 5 7 7 8 9 9 10 9 8 7 6 4 5 4 5 3 6 7 7
14 15 14 13 11 10 10 10 10 9 10 10 9 10 11 11 11 8 7 7 5 5 4 4 3 4 5 6 7 8 8 7 8 5 3 2 4 3 3 5 9 10 10
18 18 18 18 16 15 13 10 9 11 9 10 10 11 11 10 10 10 8 7 6 5 3 1 1 2 3 4 5 5 4 4 8 4 4 4 6 5 5 7 10 11 10
18 17 18 19 16 14 14 13 10 10 10 9 10 10 9 9 10 11 10 8 7 6 5 3 2 1 1 3 4 1 2 3 6 2 6 8 10 13 15 17 15 10 10
18 17 16 15 14 12 13 14 14 12 12 11 10 9 8 8 7 9 9 10 9 8 7 6 5 4 4 5 5 2 3 3 2 6 6 6 5 9 11 13 15 14 11
19 17 15 15 15 15 14 13 13 11 12 12 9 7 7 8 6 5 8 10 8 9 9 9 9 7 7 8 6 6 4 5 6 6 5 6 5 5 9 10 10 10 9
16 15 16 16 15 14 14 12 12 11 11 12 10 7 7 7 7 6 7 9 8 9 9 9 10 9 9 12 12 11 6 5 7 5 4 5 5 5 9 12 11 10 10
15 15 15 14 14 15 11 11 13 11 11 12 11 9 7 7 6 6 6 8 8 9 10 10 10 11 10 13 17 14 8 7 5 4 4 5 7 8 8 12 12 11 6
19 19 17 15 16 14 11 14 14 13 13 11 10 11 9 8 7 6 5 6 8 9 9 9 9 10 11 13 18 18 10 10 8 6 5 4 9 11 12 11 9 9 7
21 20 17 19 18 14 12 15 15 16 13 11 10 12 10 8 7 7 5 7 9 11 11 9 8 8 9 12 16 17 15 13 10 8 6 5 10 13 13 11 12 12 9
20 19 19 21 19 15 14 15 16 14 13 12 12 13 12 8 7 7 6 5 8 10 11 10 10 9 8 8 13 14 17 14 9 8 10 10 12 12 10 10 11 9 7
19 21 21 22 21 19 17 18 17 13 12 13 13 12 9 10 8 7 7 6 7 7 9 9 10 10 9 8 8 9 11 11 10 10 10 10 9 8 6 6 6 6 6
22 22 20 23 24 21 19 18 14 11 11 12 12 10 7 9 9 9 7 6 5 5 7 9 12 14 13 12 15 15 12 11 13 12 7 6 5 5 5 4 5 6 6
23 22 24 26 25 24 21 16 12 11 12 12 10 9 7 6 8 8 6 8 10 11 6 7 15 16 16 19 20 20 20 20 19 10 8 7 7 7 7 6 5 4 5
Wind_Direction
163 232 144 152 118 109 135 163 190 183 176 186 205 239 254 265 252 250 264 288 307 306 289 283 281 279 271 265 246 239 234 225 213 226 253 257 247 242 240 237 238 243 249
208 223 232 225 205 205 200 205 229 212 211 203 210 218 230 257 264 289 305 333 329 314 304 292 289 281 277 269 256 239 238 225 192 204 232 257 257 244 244 237 234 240 249
210 217 223 226 227 227 229 235 235 231 232 219 219 250 302 322 328 316 319 326 320 311 303 300 296 287 275 265 256 244 236 243 221 216 224 227 231 248 254 239 236 244 254
229 221 221 222 220 222 223 230 228 230 232 217 222 222 215 227 233 280 313 317 327 325 322 315 306 293 283 275 263 247 238 235 237 224 231 240 219 213 260 254 239 233 251
221 222 228 229 227 228 229 232 244 260 268 261 239 224 230 243 276 321 316 314 317 314 313 314 302 295 286 279 270 257 244 237 235 224 217 229 227 217 233 255 249 240 246
224 235 242 242 235 237 238 229 233 255 254 244 229 210 221 225 256 315 314 313 311 311 309 308 313 309 299 295 290 274 255 247 241 234 213 214 219 209 207 227 239 243 239
239 248 253 255 254 258 251 235 224 252 251 238 211 196 190 184 225 292 295 303 313 321 319 320 318 312 302 294 292 287 272 256 249 244 232 229 228 207 200 218 234 225 200
286 283 278 283 274 265 258 241 228 243 248 229 200 173 166 176 209 257 263 274 289 300 304 310 307 297 294 293 294 289 277 267 257 244 233 225 215 209 214 211 221 214 180
357 341 326 313 294 279 272 243 232 237 237 227 204 183 191 202 227 253 254 261 282 298 308 314 314 308 301 294 293 286 280 271 258 247 244 246 233 218 226 221 215 204 174
30 18 9 353 336 340 338 332 318 292 267 223 211 207 207 216 234 257 272 280 287 299 310 321 323 323 322 319 308 289 285 277 270 272 273 269 253 237 226 215 196 181 151
29 23 21 21 20 26 21 4 351 343 309 263 231 221 215 220 234 249 263 271 286 300 314 323 326 332 338 350 354 353 324 295 324 329 306 28 350 227 188 157 139 130 115
21 19 16 15 19 19 14 7 357 340 311 283 257 243 228 221 231 247 262 271 282 303 312 318 334 341 348 3 18 37 40 22 32 35 47 55 46 32 57 90 102 116 112
13 11 7 4 0 358 356 356 354 342 332 313 280 255 242 233 232 237 256 269 281 299 311 316 347 342 359 30 40 49 49 51 50 41 46 42 73 29 40 79 105 109 98
2 359 355 351 345 339 334 341 342 333 330 324 300 270 251 238 234 232 242 256 264 284 304 315 343 341 4 49 59 59 52 60 65 33 46 57 80 90 132 144 123 115 108
349 345 340 336 334 329 322 322 331 322 327 331 322 298 279 255 236 228 225 236 238 249 259 259 356 356 9 56 72 76 72 75 73 11 52 83 92 95 117 125 117 114 111
334 329 326 319 309 301 302 312 311 306 319 328 323 317 304 278 253 232 215 217 218 221 220 200 177 118 143 151 144 154 131 119 108 97 68 79 83 76 71 73 76 87 112
308 300 295 290 290 295 302 308 302 314 316 306 305 313 319 317 292 256 222 216 207 203 210 197 181 180 202 199 187 158 63 64 107 127 108 89 70 85 85 74 68 64 72
264 274 279 278 280 288 292 294 296 301 299 297 297 310 322 325 320 266 242 232 215 205 206 197 192 186 209 211 184 107 92 84 71 71 99 117 104 81 101 92 75 65 65
262 270 272 274 278 282 290 291 280 285 289 292 293 303 317 319 322 289 252 238 213 213 205 194 190 189 203 202 171 131 121 99 75 69 79 105 110 83 103 103 94 84 73
276 274 275 279 276 271 269 274 270 276 277 281 290 292 290 291 298 296 266 224 213 215 212 194 191 189 192 183 165 142 139 119 108 90 77 90 105 98 108 117 115 104 85
276 276 277 274 268 263 261 271 271 265 263 265 281 279 271 265 265 267 261 236 221 222 218 201 186 184 180 173 163 154 147 140 136 126 115 105 102 100 97 99 106 114 112
281 278 274 271 269 261 258 268 270 268 267 270 280 277 266 260 257 256 271 261 231 222 214 206 182 186 175 176 173 160 145 146 142 143 131 114 99 97 98 100 104 104 99
280 275 273 273 269 258 250 257 261 264 267 270 275 280 279 273 259 246 244 265 251 221 205 196 185 184 176 179 178 166 146 140 141 140 130 119 102 94 86 90 100 104 101
287 288 286 281 273 260 251 249 252 253 259 260 265 273 273 274 272 261 240 227 241 214 206 191 189 181 178 177 172 163 143 135 137 130 121 108 93 92 99 91 86 91 101
296 295 290 283 273 268 258 244 245 249 253 255 259 261 260 269 272 267 256 234 206 216 197 198 199 183 185 185 170 164 162 157 148 137 131 127 123 128 125 113 109 107 110
297 293 294 290 282 278 263 246 248 261 263 262 263 257 252 257 261 263 268 238 216 222 216 257 242 198 182 166 167 166 155 144 142 141 152 155 159 163 158 148 136 126 125
Height
1510 1510 1512 1514 1514 1515 1515 1516 1516 1515 1515 1516 1516 1514 1513 1512 1512 1510 1509 1508 1506 1504 1502 1500 1497 1495 1493 1491 1491 1492 1492 1492 1494 1495 1494 1496 1497 1497 1498 1499 1499 1500 1500
1507 1508 1511 1512 1513 1514 1514 1515 1514 1514 1515 1514 1513 1511 1510 1509 1508 1507 1505 1504 1502 1500 1496 1494 1492 1491 1488 1486 1486 1485 1484 1484 1486 1488 1488 1488 1490 1489 1490 1491 1492 1492 1492
1505 1506 1508 1510 1511 1512 1513 1514 1513 1513 1514 1513 1511 1509 1507 1506 1506 1504 1503 1500 1498 1494 1491 1488 1486 1484 1482 1480 1479 1479 1478 1477 1478 1480 1483 1482 1481 1482 1483 1483 1484 1484 1485
1503 1504 1506 1508 1509 1510 1511 1512 1512 1511 1511 1510 1508 1506 1504 1503 1502 1499 1497 1495 1492 1489 1485 1481 1479 1477 1474 1472 1470 1470 1470 1471 1471 1472 1474 1475 1476 1476 1475 1476 1477 1478 1479
1500 1502 1504 1505 1506 1507 1508 1508 1509 1509 1508 1507 1505 1503 1501 1500 1498 1495 1492 1489 1487 1483 1478 1474 1471 1469 1466 1464 1462 1462 1463 1463 1464 1465 1466 1466 1467 1468 1469 1469 1470 1472 1474
1497 1499 1500 1502 1502 1503 1504 1505 1506 1506 1505 1503 1502 1500 1498 1497 1495 1491 1488 1484 1480 1476 1471 1468 1466 1463 1461 1458 1456 1456 1457 1457 1457 1458 1458 1459 1460 1461 1462 1463 1464 1466 1468
1494 1496 1497 1498 1499 1500 1501 1502 1502 1503 1502 1499 1498 1496 1494 1493 1491 1488 1484 1480 1475 1470 1467 1465 1462 1458 1455 1454 1452 1451 1451 1450 1450 1450 1451 1453 1454 1455 1456 1457 1458 1460 1462
1493 1494 1495 1495 1495 1496 1496 1497 1498 1498 1497 1496 1494 1491 1489 1489 1487 1484 1480 1476 1472 1468 1464 1461 1458 1455 1451 1448 1447 1446 1444 1444 1443 1444 1445 1446 1446 1447 1449 1450 1454 1456 1458
1493 1492 1491 1491 1491 1491 1491 1492 1493 1493 1494 1493 1491 1489 1487 1486 1483 1480 1477 1474 1470 1466 1463 1460 1456 1452 1448 1444 1442 1441 1440 1438 1438 1438 1437 1437 1436 1438 1440 1443 1446 1451 1453
1491 1490 1488 1488 1488 1488 1487 1488 1489 1490 1491 1491 1488 1485 1483 1482 1480 1477 1474 1471 1467 1463 1460 1458 1454 1450 1445 1441 1438 1436 1435 1433 1433 1432 1430 1429 1428 1429 1431 1435 1440 1443 1446
1491 1489 1487 1486 1486 1485 1484 1485 1486 1487 1489 1488 1484 1481 1480 1478 1476 1474 1471 1468 1464 1461 1458 1455 1451 1448 1443 1438 1434 1432 1430 1429 1428 1427 1425 1424 1424 1424 1426 1430 1436 1441 1444
1496 1493 1491 1489 1487 1485 1484 1484 1484 1484 1484 1483 1481 1478 1476 1474 1473 1471 1468 1465 1462 1460 1457 1453 1450 1447 1443 1438 1434 1432 1429 1429 1428 1426 1426 1425 1424 1424 1426 1430 1435 1440 1444
1500 1497 1495 1493 1491 1488 1485 1482 1481 1480 1478 1476 1474 1472 1471 1470 1468 1466 1464 1462 1459 1457 1455 1451 1447 1447 1443 1438 1435 1434 1431 1431 1430 1428 1429 1428 1429 1428 1431 1435 1438 1441 1444
1503 1500 1498 1495 1491 1488 1485 1480 1477 1475 1471 1468 1467 1465 1463 1464 1463 1462 1460 1458 1456 1454 1453 1449 1446 1446 1445 1441 1438 1437 1435 1434 1434 1433 1432 1431 1431 1432 1435 1438 1441 1443 1446
1500 1498 1495 1492 1490 1488 1485 1480 1475 1473 1466 1461 1458 1456 1455 1454 1455 1456 1455 1454 1452 1450 1450 1447 1445 1446 1445 1442 1439 1439 1437 1435 1436 1438 1436 1435 1435 1436 1439 1442 1442 1444 1449
1497 1494 1490 1488 1486 1484 1480 1473 1468 1466 1460 1456 1454 1450 1446 1445 1445 1446 1448 1448 1447 1447 1446 1445 1444 1445 1444 1443 1440 1441 1441 1438 1439 1442 1441 1440 1441 1442 1444 1445 1446 1448 1450
1500 1495 1491 1490 1485 1479 1474 1467 1462 1458 1455 1453 1449 1445 1441 1438 1437 1438 1439 1441 1442 1442 1442 1442 1442 1442 1443 1443 1441 1441 1443 1443 1444 1444 1445 1446 1446 1447 1448 1449 1450 1451 1453
1496 1491 1486 1483 1479 1474 1467 1461 1458 1456 1452 1449 1444 1439 1435 1432 1430 1430 1431 1434 1436 1436 1437 1438 1439 1440 1442 1443 1442 1442 1444 1445 1446 1446 1447 1448 1449 1450 1451 1451 1452 1453 1455
1487 1482 1478 1474 1469 1464 1460 1454 1452 1450 1448 1443 1438 1434 1430 1427 1424 1423 1424 1425 1427 1429 1431 1433 1435 1436 1438 1440 1441 1441 1445 1446 1447 1447 1448 1449 1450 1450 1451 1451 1453 1455 1456
1479 1474 1470 1465 1460 1456 1454 1450 1445 1442 1439 1436 1433 1430 1427 1424 1420 1418 1418 1418 1419 1421 1424 1425 1429 1431 1434 1437 1439 1440 1444 1445 1446 1447 1448 1449 1450 1451 1452 1453 1454 1455 1455
1470 1465 1460 1455 1451 1448 1445 1439 1434 1431 1430 1429 1427 1425 1423 1420 1416 1413 1412 1411 1412 1414 1417 1419 1422 1425 1429 1433 1436 1439 1441 1444 1446 1447 1448 1450 1451 1452 1452 1452 1454 1455 1457
1459 1455 1450 1443 1439 1436 1434 1427 1423 1422 1421 1420 1418 1417 1415 1412 1410 1407 1405 1405 1404 1406 1409 1414 1416 1419 1424 1429 1433 1437 1440 1443 1445 1447 1448 1449 1451 1452 1452 1453 1454 1456 1458
1449 1444 1438 1431 1427 1425 1423 1417 1414 1414 1411 1409 1407 1406 1405 1403 1401 1399 1398 1396 1397 1396 1400 1405 1408 1413 1419 1425 1430 1434 1438 1441 1445 1447 1448 1450 1451 1452 1454 1455 1456 1457 1458
1438 1432 1426 1418 1413 1411 1409 1406 1403 1402 1400 1398 1397 1396 1395 1393 1391 1390 1389 1389 1391 1391 1393 1398 1401 1407 1413 1420 1424 1430 1435 1439 1443 1446 1448 1450 1452 1454 1456 1457 1457 1458 1459
1427 1420 1413 1406 1400 1397 1394 1392 1391 1390 1389 1388 1387 1386 1386 1385 1382 1381 1380 1379 1381 1384 1387 1392 1397 1401 1406 1413 1419 1425 1430 1436 1440 1444 1447 1450 1452 1455 1457 1458 1458 1459 1460
1414 1407 1400 1392 1386 1382 1379 1377 1376 1377 1377 1377 1377 1376 1377 1376 1375 1374 1373 1372 1373 1374 1378 1386 1392 1397 1403 1410 1416 1423 1428 1433 1437 1442 1445 1448 1451 1454 1456 1458 1459 1461 1462